DELTA 1 DEB, 10708

Orbit data source: Space-Track

DELTA 1 DEB, 10708 is space debris in SSO originally from a launch on Thu, 29 Jul 1976 UTC launched from the Air Force Western Test Range (AFWTR). Debris objects in space refer to the collection of defunct objects orbiting the Earth. Examples of debris include non-operational satellites, rocket bodies, and fragments generated from explosions, collisions, or faulty payload assembly.

Loading next visibility...
Identifier
10708, 1976-077AD
Orbit
SSO
Country
Flag of USUS
Related business
Manufacturer
Unknown
Mission
Spacecraft
Bus & Motor
Unknown
Mass
Unknown
Launch date (UTC)
1976-07-29 (50 years ago)
Launch vehicle
Unknown
Launch site
Air Force Western Test Range (AFWTR)
Object type
Payload
Rocket body
Debris
Shape & HBR
Unknown shape, 0.1 m
Radar Cross Section
Small (<0.1 m²)

Expand to show TLE details & history
Last TLE update: 6 hours ago

TLE from 6 hours ago
0 DELTA 1 DEB
1 10708U 76077AD  26104.89547793  .00000263  00000-0  15957-2 0  9998
2 10708 101.2089 113.6120 0165011 126.7886 308.2180 12.63401121279859
Epoch: 2026-04-14T21:29Z
TLE epoch observation values (Epoch: 2026-04-14T21:29:29.293Z)
Latitude
70.21762°
Longitude
-85.06961°
Altitude
1,342.759 km
Speed
7.229 km/s
True Right ascension
05h 21m 28s
True Declination
70° 06' 58"
Sunlit
Object was in daylight at epoch
Visualization orbit readout
Latitude
Unknown
Longitude
Unknown
Altitude
Unknown
Speed
Unknown
Apparent Right ascension
Unknown
Apparent Declination
Unknown
Sunlit
N/A
Visualization observer readout
Local Sidereal Time
10:28:00
Azimuth
Unknown
Elevation
Unknown
Doppler factor
Unknown
Orbital elements
Apogee altitude
1,534.889 km
Perigee altitude
1,277.981 km
Semi-major axis
7,784.572 km
Eccentricity
0.0165
Inclination
101.2089°
RAAN
113.612°
Arg. of periapsis
126.7886°
True anomaly
306.71338°
Mean anomaly
308.218°
Eccentric anomaly
307.4676°
Mean motion
3.16003 °/min
Orbital period
113.92 mins
BSTAR
0.0015957
Loading maneuver chart data...
Computing Atmospheric mass density...
Loading historical data...
Loading historical data...
Loading historical data...
Loading historical data...
Loading historical data...
Loading historical data...
Loading historical data...

Documentation

Showing up to 5 results
|